Погода в Горном Балыклее

Россия / Волгоградская область     49°33′05″N   45°04′02″E
темп.,
°C
ветер,
м/с
пор.,
м/с
влажн.,
%
обл.,
%
осадки,
мм/ч
давл.,
гПа
погр.,
м
20 апреля, вт
вт2000:00+9всв3594100 0.1 1015139
03:00+10в4695100 1.1 1014178
06:00+9в61097100 0.8 1014275
09:00+9в81393100 1.3 1014409
12:00+10в81392100 0.4 1013385
15:00+10в101796100 7.3 1011454
18:00+10вюв101797100 17.1 1011529
21:00+11юв122191100 26.3 1011590
21 апреля, ср
ср2100:00+11юв111990100 1.9 1012525
03:00+11ююв101794100 2.0 1013424
06:00+11ююв91489100 0.0 1013386
09:00+11ююз71074100 0.3 1015590
12:00+13юз7869100 0.0 1016709
15:00+13юз6768100 0.1 1017704
18:00+13ююз336590 0.0 101784
21:00+12юз3570100 0.0 1020114
22 апреля, чт
чт2200:00+10зюз467917 0.0 102082
03:00+9з33815 0.0 102132
06:00+9з1281100 0.0 102121
09:00+11ю006996 0.0 1022279
12:00+13ююв225999 0.0 1023866
15:00+14ю23566 0.0 1022666
18:00+14вюв2257100 0.0 102234
21:00+13ююв116096 0.0 102216
23 апреля, пт
пт2300:00+12юв3468100 0.0 102253
03:00+11юв3375100 0.0 102351
06:00+10в2377100 0.0 102362
09:00+11в3471100 0.0 1023207
12:00+13в3363100 0.0 1022435
15:00+14всв335668 0.3 1021822
18:00+14всв22586 0.1 1020174
21:00+12с117328 0.4 102013
24 апреля, сб
сб2400:00+10в21815 0.0 101911
03:00+9зсз00845 0.0 101810
06:00+9ююз22835 0.3 101833
09:00+13ююз456710 0.5 1017424
12:00+16юз675021 0.0 10161405
15:00+17юз684171 0.0 10141567
18:00+15юз610575 0.1 1013450
21:00+10зсз81391100 1.8 1015610